www.pogodaiklimat.ru

Погода и климат >> Архив погоды >> Австралия >> Longreach Airport


ПОГОДА в Longreach Airport

  • Прогноз погоды в Longreach Airport
  • Монитор погоды в Longreach Airport
  • Климат города

АРХИВ ПОГОДЫ в Longreach Airport

Время (UTC), дата Ветер
(напр.,м/с)
 
Видим.   Явления Облачность Т
(С)
Тd
(С)
f
(%)
Тe
(С)
Тes
(С)
Комфортность P
(гПа)
Po
(гПа)
Тmin
(С)
Tmax
(С)
R
(мм)
R24
(мм)
S
(см)
23 17.04 С 7 н/о н/о +28.7 +16.9 49 +32 +32 душно 1016.1 994.0
00 18.04 С 6 н/о н/о +30.0 +16.4 44 +33 +33 душно 1016.3 994.2
02 18.04 С 6 н/о н/о +33.2 +11.1 26 +33 +33 жарко 1014.7 992.7 +22.5
03 18.04 С 4 н/о н/о +33.5 +11.4 26 +33 +33 жарко 1013.6 991.6
05 18.04 СЗ 3 н/о 6/0
[]
+35.6 +10.6 22 +35 +40 очень
жарко
1011.9 989.9
06 18.04 С 5 н/о н/о +35.4 +11.1 23 +35 +35 очень
жарко
1011.8 989.8
08 18.04 СВ 4 н/о н/о +32.4 +11.0 27 +32 +32 жарко 1012.6 990.6
09 18.04 СВ 4 н/о н/о +30.2 +11.2 31 +31 +31 жарко 1013.2 991.2
11 18.04 СВ 4 н/о н/о +28.0 +11.5 36 +29 +29 жарко 1014.3 992.3
12 18.04 СВ 4 н/о н/о +26.3 +11.6 40 +28 +28 жарко 1014.5 992.5
14 18.04 СВ 4 н/о н/о +24.4 +11.4 44 +26 +26 жарко 1014.3 992.3 +36.3
15 18.04 СВ 3 н/о н/о +23.1 +11.2 47 +25 +25 комфорт 1014.2 992.2
17 18.04 СВ 4 н/о н/о +23.2 +11.6 48 +26 +26 жарко 1013.8 991.8
18 18.04 СВ 4 н/о н/о +21.9 +11.6 52 +24 +24 комфорт 1013.9 991.9
20 18.04 СВ 4 н/о н/о +21.7 +11.7 53 +24 +24 комфорт 1015.5 993.4
21 18.04 СВ 4 н/о н/о +21.6 +11.9 54 +24 +24 комфорт 1016.3 994.2
23 18.04 С 7 н/о н/о +26.7 +13.1 43 +28 +28 жарко 1017.6 995.5
00 19.04 СВ 8 н/о н/о +28.9 +12.8 37 +30 +30 жарко 1017.5 995.4
02 19.04 С 6 н/о н/о +31.9 +13.2 32 +33 +33 жарко 1015.7 993.6 +21.5
03 19.04 С 6 н/о н/о +32.6 +13.3 31 +34 +34 очень
жарко
1014.4 992.4
05 19.04 0 н/о 1013.2 991.2
06 19.04 0 н/о 1012.7 990.7
08 19.04 0 н/о 1013.0 991.0
09 19.04 0 н/о 1013.5 991.5
11 19.04 0 н/о 1014.6 992.6
12 19.04 0 н/о 1015.2 993.1
14 19.04 0 н/о 1015.0 992.9
15 19.04 0 н/о 1015.0 992.9
17 19.04 0 н/о 1014.8 992.8
18 19.04 0 н/о 1015.6 993.5
20 19.04 0 н/о 1015.4 993.3
21 19.04 0 н/о 1016.1 994.0
23 19.04 0 н/о 1016.9 994.8
00 20.04 0 н/о 1016.6 994.5
02 20.04 0 н/о 1014.7 992.7
03 20.04 0 н/о 1013.7 991.7
05 20.04 штиль 0 50 км ?/? -40.7 -41 -41 опасность
обморожения
1012.3 990.3
06 20.04 0 н/о 1012.0 990.0
08 20.04 0 н/о 1012.5 990.5
09 20.04 0 н/о 1013.1 991.1
11 20.04 0 н/о 1014.1 992.1
12 20.04 0 н/о 1014.4 992.4
14 20.04 штиль 0 50 км ?/? -20.7 -21 -21 1014.3 992.3
15 20.04 0 н/о 1014.1 992.1
17 20.04 0 н/о 1013.8 991.8
18 20.04 0 н/о 1013.7 991.7
20 20.04 0 н/о 1014.3 992.3
21 20.04 0 н/о 1015.1 993.0
23 20.04 0 н/о 1015.9 993.8
00 21.04 0 н/о 1016.0 993.9
02 21.04 0 н/о 1014.2 992.2
03 21.04 0 н/о 1013.1 991.1
05 21.04 штиль 0 50 км ?/? -10.7 -11 -11 1011.8 989.8
06 21.04 0 н/о 1011.7 989.7
08 21.04 0 н/о 1012.2 990.2
09 21.04 0 н/о 1012.9 990.9
11 21.04 ЮВ 5 н/о н/о +26.6 +7.6 30 +26 +26 жарко 1014.1 992.1
12 21.04 ЮВ 6 н/о н/о +25.8 +7.9 32 +26 +26 жарко 1014.2 992.2
14 21.04 ЮВ 5 н/о н/о +23.4 +8.3 38 +25 +25 комфорт 1014.4 992.4
15 21.04 ЮВ 5 н/о н/о +22.6 +8.3 40 +24 +24 комфорт 1014.2 992.2
17 21.04 ЮВ 5 н/о н/о +20.7 +9.0 47 +22 +22 комфорт 1013.7 991.7
18 21.04 ЮВ 4 н/о н/о +19.6 +9.2 51 +21 +21 комфорт 1013.6 991.6
20 21.04 ЮВ 4 н/о н/о +19.2 +10.2 56 +20 +20 1014.4 992.4
23 21.04 В 9 н/о н/о +26.1 +13.9 47 +28 +28 жарко 1016.6 994.5
00 22.04 В 7 н/о н/о +27.7 +15.0 46 +30 +30 жарко 1016.6 994.5
02 22.04 В 4 н/о 4/4 1500 м
[]
+29.9 +14.8 40 +32 +38 жарко 1015.0 992.9
03 22.04 СВ 5 н/о н/о +30.9 +12.8 33 +32 +32 жарко 1013.9 991.9
05 22.04 ЮВ 5 н/о 6/0
[]
+31.1 +9.3 26 +30 +33 жарко 1012.4 990.4
06 22.04 ЮВ 6 н/о н/о +31.9 +8.2 23 +31 +31 жарко 1012.2 990.2
08 22.04 ЮВ 6 н/о н/о +29.5 +8.0 26 +29 +29 жарко 1013.1 991.1
09 22.04 Ю 4 н/о н/о +27.0 +7.5 29 +27 +27 жарко 1013.8 991.8
11 22.04 ЮВ 4 н/о н/о +24.9 +8.0 34 +25 +25 комфорт 1015.4 993.3
12 22.04 ЮВ 3 н/о н/о +23.2 +7.3 36 +24 +24 комфорт 1015.8 993.7
14 22.04 ЮВ 4 н/о н/о +21.3 +7.5 41 +22 +22 комфорт 1015.6 993.5
15 22.04 ЮВ 4 н/о н/о +20.9 +7.9 43 +22 +22 комфорт 1015.1 993.0
17 22.04 ЮВ 4 н/о н/о +19.4 +8.1 48 +20 +20 1014.4 992.4
18 22.04 ЮВ 5 н/о н/о +18.5 +7.9 50 +19 +19 1014.3 992.3
20 22.04 ЮВ 5 н/о н/о +17.2 +7.5 53 +17 +17 1015.3 993.2
21 22.04 ЮВ 4 н/о н/о +17.2 +7.8 54 +17 +17 1016.0 993.9
23 22.04 В 5 н/о н/о +25.0 +9.7 38 +26 +26 жарко 1017.0 994.9
00 23.04 0 н/о +7.8 1015.4 993.3
02 23.04 ЮВ 4 н/о 3/0 2000 м
[]
+30.4 +8.2 25 +30 +38 жарко 1015.1 993.0 +16.8
03 23.04 В 4 н/о н/о +31.7 +6.7 21 +30 +30 жарко 1013.9 991.9
05 23.04 Ю 3 н/о н/о +31.0 +3.1 17 +29 +29 жарко 1012.8 990.8
06 23.04 Ю 5 н/о н/о +31.2 +3.3 17 +29 +29 жарко 1013.0 991.0
08 23.04 Ю 4 н/о 1/0
[]
+29.0 +3.8 20 +27 +27 жарко 1013.9 991.9
09 23.04 Ю 3 н/о н/о +25.8 +3.7 24 +25 +25 комфорт 1014.5 992.5
11 23.04 ЮВ 4 н/о н/о +23.3 +4.3 29 +23 +23 комфорт 1015.4 993.3
12 23.04 ЮВ 4 н/о н/о +21.8 +3.9 31 +22 +22 комфорт 1015.7 993.6
14 23.04 ЮВ 4 н/о н/о +21.5 +4.6 33 +22 +22 комфорт 1015.3 993.2
15 23.04 ЮВ 4 н/о н/о +20.0 +4.5 36 +21 +21 комфорт 1015.1 993.0
17 23.04 ЮВ 5 н/о н/о +18.1 +4.7 41 +18 +18 1014.0 992.0
18 23.04 ЮВ 4 н/о н/о +16.9 +4.6 44 +16 +16 1013.9 991.9
20 23.04 ЮВ 4 н/о н/о +15.6 +4.0 46 +15 +15 1014.7 992.7
21 23.04 ЮВ 4 н/о н/о +15.4 +3.9 46 +15 +15 1015.7 993.6
23 23.04 0 н/о н/о +23.8 +4.7 29 1016.7 994.6
00 24.04 0 н/о н/о +27.7 +4.1 22 1016.9 994.8
02 24.04 0 н/о н/о +30.0 +2.3 17 1015.4 993.3
03 24.04 0 н/о н/о +32.2 +9 +9 1014.6 992.5
05 24.04 0 н/о н/о +31.3 +0.6 14 1012.4 990.4
06 24.04 Ю 5 н/о н/о +30.8 +1.2 15 +28 +28 жарко 1012.2 990.2
08 24.04 Ю 5 н/о н/о +28.0 +0.7 17 +26 +26 жарко 1012.6 990.6
09 24.04 Ю 4 н/о н/о +25.6 +1.0 20 +24 +24 комфорт 1013.3 991.3
11 24.04 ЮВ 4 н/о н/о +21.5 +0.7 25 +21 +21 комфорт 1014.7 992.7
12 24.04 ЮВ 3 н/о н/о +20.4 +0.8 27 +21 +21 комфорт 1014.6 992.6
14 24.04 ЮВ 3 н/о н/о +17.9 +1.0 32 +18 +18 1014.0 992.0
15 24.04 ЮВ 3 н/о н/о +17.0 +1.0 34 +17 +17 1013.6 991.6
17 24.04 ЮВ 4 н/о н/о +15.6 +2.4 41 +15 +15 1012.9 990.9
18 24.04 ЮВ 3 н/о н/о +15.3 +2.5 42 +15 +15 1012.8 990.8
20 24.04 ЮВ 4 н/о н/о +14.6 +2.5 44 +14 +14 1013.3 991.3

 

Местоположение метеостанции Longreach Airport (Квинсленд, Австралия): широта -23.43 долгота 144.28 высота над уровнем моря 192 м.

В архиве по умолчанию представлена погода в Longreach Airport за последнюю неделю. Архивные данные за месяц целиком и за предыдущие месяцы, начиная с января 2011 года, Вы можете получить, выбрав интересующий диапазон дат из раскрывающегося списка и нажав кнопку "Ввод!".


*Определитесь, кто Вы:
робот инопланетянин человек

Внимание! Время в таблицах - всемирное. Для получения местного времени необходимо прибавить поправку, которая в Longreach Airport равна 10 ч.

Смотрите также архив погоды в соседних городах и на ближайших метеорологических станциях:

Погода в Blackall Airport (Квинсленд, Австралия) (161 км)
Погода в Winton Airport (Квинсленд, Австралия) (170 км)
Погода в Hughenden Airport (Квинсленд, Австралия) (290 км)
Погода в Richmond Airport (Квинсленд, Австралия) (327 км)
Погода в Lochington (Квинсленд, Австралия) (335 км)
Погода в Clermont Airport (Квинсленд, Австралия) (349 км)
Погода в Charleville Aero (Квинсленд, Австралия) (387 км)
Погода в Trepell Airport (Квинсленд, Австралия) (392 км)
Погода в Emerald Airport (Квинсленд, Австралия) (398 км)
Погода в Julia Creek Airport (Квинсленд, Австралия) (404 км)

Пояснения к столбцам:

Ветер - указаны скорость ветра в м/с - средняя за 10 мин, порывы в срок и между сроками (в фигурных скобках) и направление, откуда дует ветер: С - северный, СВ - северо-восточный, В - восточный, ЮВ - юго-восточный, Ю - южный, ЮЗ - юго-западный, З - западный, СЗ - северо-западный.
Видимость - горизонтальная дальность видимости в метрах или километрах. При видимости от 1 до 10 км при отсутствии осадков обычно наблюдается дымка, при ухудшении видимости до 1 км и менее - туман. В сухую погоду видимость может ухудшаться дымом, пылью или мглою.
Явления - указаны атмосферные явления, наблюдавшиеся в срок или в последний час перед сроком; фигурными скобками обозначены явления, наблюдавшиеся между сроками (за 1-3 часа до срока); квадратными скобками обозначены град или гололедные отложения с указанием их диаметра в мм.
Облачность - указаны через наклонную черту общая и нижняя облачность в баллах и высота нижней границы облаков в метрах; квадратными скобками обозначены формы облаков: Ci - перистые, Cs - перисто-слоистые, Cc - перисто-кучевые, Ac - высококучевые, As - высокослоистые, Sc - слоисто-кучевые, Ns - слоисто-дождевые, Cu - кучевые, Cb - кучево-дождевые. Подробнее классификацию облаков см. в Атласе облаков (PDF).
T - Температура воздуха - температура, измеренная на высоте 2 м над землей.
Td - Температура точки росы - температура, при понижении до которой содержащийся в воздухе водяной пар достигнет насыщения.
f - Относительная влажность воздуха - влажноcть воздуха, измеренная на высоте 2 м над землей.
Te - Эффективная температура - температура, которую ощущает одетый по сезону человек в тени. Характеристика душности погоды. При расчете учитывается влияние влажности воздуха и скорости ветра на теплоощущения человека.
Tes - Эффективная температура на солнце - температура, которую ощущает человек, с поправкой на солнечный нагрев. Характеристика знойности погоды. Зависит от высоты солнца над горизонтом, облачности и скорости ветра. Ночью, в пасмурную погоду, а также при ветре 12 м/с и более поправка равна нулю.
P - Атмосферное давление - приведенное к уровню моря атмосферное давление.
Po - Атмосферное давление - измеренное на уровне метеостанции атмосферное давление.
Tmin - Минимальная температура - минимум температуры воздуха на высоте 2 м над землей.
Tmax - Максимальная температура - максимум температуры воздуха на высоте 2 м над землей.
R - Количество осадков - Количество выпавших осадков за период времени, мм. При наведении курсора мыши на число - период времени, за который выпало указанное количество осадков.
R24 - Количество осадков - Количество выпавших осадков за 24 часа, мм.
S - Снежный покров - Высота снежного покрова, см. При наведении курсора мыши на число - состояние снежного покрова и степень покрытия местности в баллах.